Regional Weather Roundup
Issued by NWS

Home | Current Version | Previous Version | Graphics & Text | Print | Product List | Glossary On
Versions: 1 2 3 4 5 6 7 8 9 10 11 12 13 14 15 16 17 18 19 20 21 22 23 24 25 26 27 28 29 30 31 32 33 34 35 36 37 38 39 40 41 42 43 44 45 46 47 48 49 50
000
ASUS45 KCYS 210910
RWRWY

WYOMING REGIONAL WEATHER ROUNDUP
NATIONAL WEATHER SERVICE CHEYENNE WY
200 AM MST SUN DEC 21 2014

NOTE:  "FAIR" INDICATES FEW OR NO CLOUDS BELOW 12,000 FEET
WITH NO SIGNIFICANT WEATHER AND/OR OBSTRUCTIONS TO VISIBILITY.

WYZ001-211000-
YELLOWSTONE NATIONAL PARK

CITY           SKY/WX    TMP DP  RH WIND       PRES   REMARKS
LK YELLOWSTONE   N/A     27  23  85 VRB3      29.77F
W YELLOWSTONE  NOT AVBL

$$
WYZ002>013-054>058-071-098>099-211000-
NORTHERN WYOMING

CITY           SKY/WX    TMP DP  RH WIND       PRES   REMARKS
JACKSON        CLOUDY    30  30 100 SW9       29.83R WCI  22
CODY           FAIR      39  25  56 W14       29.62F WCI  31
GREYBULL       FAIR      13  12  96 CALM      29.68F
WORLAND        FAIR       8   5  87 CALM      29.67F
SHERIDAN       FAIR      23  17  78 CALM      29.61F
BUFFALO        FAIR      29  16  58 SW6       29.64F WCI  23
GILLETTE       FAIR      33  20  58 SW13      29.65F WCI  24
HULETT           N/A    N/A N/A N/A MISG        N/A
NEWCASTLE      FAIR      27  23  86 SE6       29.73F WCI  20

$$
WYZ014>020-022>026-101>103-211000-
CENTRAL WYOMING

CITY           SKY/WX    TMP DP  RH WIND       PRES   REMARKS
BIG PINEY      MOCLDY    23  20  88 E7        29.87F WCI  15
PINEDALE       CLOUDY    23  23 100 SE3       29.88S
DUBOIS         NOT AVBL
LANDER         FAIR      16  12  84 NW9       29.71F WCI   4
RIVERTON       FAIR      19  16  88 SW5       29.73F WCI  12
CASPER         FAIR      31  25  78 SW18      29.74F WCI  19
DOUGLAS        FAIR      35  24  64 NW6       29.75F WCI  30

$$
WYZ021-027>030-104>119-211000-
SOUTHERN WYOMING

CITY           SKY/WX    TMP DP  RH WIND       PRES   REMARKS
EVANSTON       CLOUDY    31  29  92 SW21      29.93F WCI  18
KEMMERER       FLURRIES  32  28  86 SW22G28   29.87F WCI  19
FORT BRIDGER   FAIR      34  30  86 W17G25    29.92F WCI  23
ROCK SPRINGS   CLOUDY    30  25  81 S13       29.89F WCI  20
DIXON          CLOUDY    31  27  84 SW16G22   30.00F WCI  20
RAWLINS        FAIR      30  24  78 SW24G31   29.84F WCI  16
SARATOGA       CLOUDY    32  25  74 S9        29.92F WCI  24
LARAMIE        FAIR      30  18  60 W24G33    29.83F WCI  16
CHEYENNE       FAIR      35  21  56 W23       29.83F WCI  23
TORRINGTON     FAIR     N/A N/A N/A SE5       29.79F
PINE BLUFFS    FAIR      27  19  74 W7        29.84F WCI  19

$$


USA.gov is the U.S. government's official web portal to all federal, state and local government web resources and services.